Regional Weather Roundup
Issued by NWS

Home | Current Version | Previous Version | Text Only | Print | Product List | Glossary On
Versions: 1 2 3 4 5 6 7 8 9 10 11 12 13 14 15 16 17 18 19 20 21 22 23 24 25 26 27 28 29 30 31 32 33 34 35 36 37 38 39 40 41 42 43 44 45 46 47 48 49 50
000
ASUS46 KLOX 211512
RWRCA

SOUTHERN CALIFORNIA WEATHER ROUNDUP
NATIONAL WEATHER SERVICE OXNARD CALIFORNIA
800 AM PDT TUE OCT 21 2014

NOTE: "FAIR" INDICATES FEW OR NO CLOUDS BELOW 12,000 FEET WITH NO
SIGNIFICANT WEATHER AND/OR OBSTRUCTIONS TO VISIBILITY.

  -  STATIONS PRECEEDED BY AN ASTERISK (*) ARE NOT NWS OR FAA
     STATIONS AND ARE NOT SUBJECT TO NWS AND FAA QUALITY CONTROL.

CAZ041-042-087-211600-
LA AND ORANGE COUNTY COASTAL AREAS


CITY           SKY/WX    TMP DP  RH WIND       PRES   REMARKS
L.A. DOWNTOWN  PTSUNNY   65  59  81 CALM      29.91R HAZE
L.A. AIRPORT   MOSUNNY   65  61  87 VRB3      29.92R
LONG BEACH     CLOUDY    66  60  81 E5        29.91R

CITY           SKY/WX    TMP DP  RH WIND       PRES   REMARKS
AVALON           N/A     59 N/A N/A S3          N/A
FULLERTON      CLOUDY    66  60  81 VRB3      29.91R HAZE
*GETTY CENTER    N/A     59  52  77 NE1         N/A
HAWTHORNE      MOSUNNY   67  60  78 E3        29.92R
*LEO CARRILLO    N/A     64  56  75 N7          N/A
*LOS ALAMITOS  CLOUDY    66  60  83 CALM      29.92R
*REDONDO BEACH   N/A     59  56  90 CALM      29.91R
SANTA ANA      PTSUNNY   68  59  73 CALM      29.91R
STA MONICA APT SUNNY     63  58  83 CALM      29.92R HAZE
*STA MON PIER    N/A     65  60  83 N3        29.92R
*UCLA            N/A     63  55  77 NE1       29.90R

$$

CAZ547-548-048-211600-
LA COUNTY VALLEYS AND INLAND EMPIRE


CITY           SKY/WX    TMP DP  RH WIND       PRES   REMARKS
BURBANK        FOG       59  58  96 CALM      29.92R VSB 1/2
VAN NUYS       FOG       57  56  96 S3        29.92R VSB<1/4

CITY           SKY/WX    TMP DP  RH WIND       PRES   REMARKS
CORONA AIRPORT PTSUNNY   58  57  96 CALM      29.94R
*CHATSWORTH      N/A     58  56  93 CALM      29.90R
CHINO          CLOUDY    61  58  90 CALM      29.94R FOG
*CLAREMONT       N/A     54  51  91 CALM        N/A
MARCH AFB      FOG       58  58 100 E3        29.94R VSB 1/8
*NORTHRIDGE      N/A     57  54  88 S1          N/A
ONTARIO        CLOUDY    62  59  90 CALM      29.93R FOG
*PASADENA        N/A     59  57  94 CALM        N/A
POMONA         FOG       57  55  94 CALM      29.95R VSB 1/4
RIVERSIDE      CLOUDY    59  57  93 CALM      29.93R FOG
SAN BERNARDINO FOG       55  54  94 CALM      29.93R VSB 1
*SAN RAFAEL HI   N/A     64  59  83 CALM        N/A
*SAUGUS          N/A     56  49  76 NW7         N/A
*WHITEMAN AP   SUNNY     57  57 100 CALM      29.95
*WHITTIER HILL   N/A     59  59 100 E2          N/A
*WOODLAND HILL   N/A     55  52  88 CALM        N/A

$$

CAZ054-055-211600-
LA AND SAN BERNARDINO COUNTY MOUNTAINS


CITY           SKY/WX    TMP DP  RH WIND       PRES   REMARKS
*ACTON           N/A     46  42  84 N7          N/A
*BIG BEAR AIRP SUNNY     34  30  86 W3        30.14R
*BIG PINES       N/A     50   1  13 CALM        N/A
MT WILSON NWS    N/A     55  23  28 SW6         N/A
SANDBERG       FOG       47  44  90 N30G39    30.05R VSB<1/4

$$

CAZ028-029-059-060-099-211600-
ANTELOPE VALLEY AND SURROUNDING AREAS


CITY           SKY/WX    TMP DP  RH WIND       PRES   REMARKS
LANCASTER      SUNNY     55  45  68 W18       29.99R
PALMDALE       SUNNY     53  44  71 S5        30.00R
*POPPY PARK      N/A     55  44  65 W24G36      N/A

CITY           SKY/WX    TMP DP  RH WIND       PRES   REMARKS
29 PALMS       SUNNY     62  47  57 W14       30.01R
BARSTOW/DAGGET SUNNY     61  47  59 W13       29.95R
BISHOP         PTCLDY    39  20  46 N7        30.01R WCI  34
CHINA LAKE     MOSUNNY   54  36  50 NW6       29.91R
EDWARDS AFB    MOSUNNY   56  46  68 SW14      29.95R
MOJAVE         FAIR      57  45  62 W23G30    29.96F
NEEDLES        SUNNY     74  46  36 CALM      29.87R
VICTORVILLE    SUNNY     52  45  76 CALM      30.00S

$$

CAZ039-040-211600-
VENTURA AND SANTA BARBARA COUNTY COAST


CITY           SKY/WX    TMP DP  RH WIND       PRES   REMARKS
CAMARILLO      CLEAR     59  53  80 E5        29.91S
NWS OXNARD       N/A     56  53  87 CALM      29.92R
OXNARD AIRPORT CLEAR     59  52  77 CALM      29.91R
*POINT MUGU    PTCLDY    61  55  81 N5        29.92R
SBA APT/GOLETA CLEAR     56  53  90 CALM      29.91R
*SANTA BARBARA   N/A     60  56  88 CALM      29.99R
*VENTURA         N/A     57  53  86 NE3       29.96S

$$

CAZ044-045-211600-
VENTURA COUNTY VALLEYS


CITY           SKY/WX    TMP DP  RH WIND       PRES   REMARKS
*SIMI VALLEY     N/A     59  53  80 CALM      29.89F
*OJAI            N/A     52  50  93 CALM      29.90R
*FILLMORE        N/A     56  54  93 CALM      29.83S

$$

CAZ053-211600-
VENTURA COUNTY MOUNTAINS


CITY           SKY/WX    TMP DP  RH WIND       PRES   REMARKS
*LOCKWOOD VLY    N/A     37  34  87 MISG        N/A
*ROSE VALLEY     N/A     36  36 100 MISG        N/A

$$

CAZ034-035-036-211600-
CENTRAL COAST AND SANTA YNEZ VALLEY


CITY           SKY/WX    TMP DP  RH WIND       PRES   REMARKS
SAN LUIS OBISP CLEAR     61  48  62 NW7       30.00R
SANTA MARIA    CLEAR     65  47  52 N8        29.96S

CITY           SKY/WX    TMP DP  RH WIND       PRES   REMARKS
*CAL POLY SLO    N/A     59  52  77 NW13G20     N/A
*LOMPOC        CLEAR     55  46  71 CALM      29.96R
*PISMO BEACH     N/A     62  50  66 W1        30.00R
*SANTA YNEZ    CLOUDY    55  52  88 CALM      29.96R

$$

CAZ037-038-051-211600-
SAN LUIS OBISPO COUNTY INTERIOR AND CUYAMA VALLEY


CITY           SKY/WX    TMP DP  RH WIND       PRES   REMARKS
*CUYAMA          N/A     55  44  67 NE8       30.01R
PASO ROBLES    CLOUDY    56  48  74 NW8       30.06R

$$

CAZ032-033-061-211600-
SOUTHERN DESERTS


CITY           SKY/WX    TMP DP  RH WIND       PRES   REMARKS
BLYTHE         SUNNY     72  46  39 NW5       29.84R
IMPERIAL       SUNNY     70  53  54 W6        29.81R
PALM SPRINGS   SUNNY     72  53  51 W6        29.85R
THERMAL        SUNNY     65  54  67 W3        29.80R

$$

ELSEWHERE ACROSS THE WESTERN UNITED STATES AND MEXICO


CITY           SKY/WX    TMP DP  RH WIND       PRES   REMARKS
DENVER, CO     MOSUNNY   61  38  42 SW12      30.04R
GRAND CANYON,  MOSUNNY   44  34  67 CALM      30.17R
HONOLULU, HI   PTCLDY    75  70  83 VRB3      29.96S
KAHULUI, MAUI  CLEAR     70  66  88 SE6       29.97S
LAKE TAHOE, CA CLEAR     34  24  67 CALM      30.11R
LAS VEGAS, NV  MOSUNNY   71  37  28 S12       29.85R
MAMMOTH LAKES, FAIR      34  23  64 N5        30.12R WCI  30
MEXICO CITY, M PTSUNNY   59  52  77 NE5       30.24R
PHOENIX, AZ    MOSUNNY   74  52  46 SE6       29.88R
PORTLAND, OR   MOCLDY    54  51  90 S7        29.97R
RENO, NV       PTCLDY    40  29  64 CALM      30.13R
SALT LAKE CITY MOSUNNY   65  39  38 S15G25    29.89S
SAN DIEGO, CA  PTSUNNY   69  60  73 CALM      29.91S
SAN FRANCISCO, PTCLDY    59  52  77 NW6       30.11R
SAN JOSE, CA   MOCLDY    52  48  86 CALM      30.10R
SEATTLE, WA    MOCLDY    54  50  87 S10       29.89R
TIJUANA, MEX   PTSUNNY   64  57  77 NW6       29.93R FOG

$$

STATION/POSITION TIME  TEMP    WIND        PRES    VSBY  WAVE
                       AIR SEA DIR/SP/G                  HT/PER
                 (UTC) (F)     (DEG/KT/KT) (MB)    (MI)  (FT/S)
POINT ARGUELLO B NOT AVBL
WEST SANTA BARBA 1500   64 65  330/ 21/ 25 1012.3R        12/15
POINT CONCEPTION NOT AVBL
EAST SANTA BARBA NOT AVBL
SANTA MONICA BAY 1500   69 70   90/  2/  4 1012.4R         5/15



USA.gov is the U.S. government's official web portal to all federal, state and local government web resources and services.